Weather History for KATL - November, 2013

Change the Weather History Date:

Friday, November 1, 2013

  Actual Average Record
Temperature  
Mean Temperature 66 °F 59 °F  
Max Temperature 76 °F 68 °F 81 °F (1950)
Min Temperature 56 °F 49 °F 30 °F (1993)
Degree Days  
Heating Degree Days 0 7  
Month to date heating degree days 0 7  
Since 1 July heating degree days 98 136  
Cooling Degree Days 1 1  
Month to date cooling degree days 1 1  
Year to date cooling degree days 1755 1873  
Growing Degree Days 17 (Base 50)    
Moisture  
Dew Point 60 °F    
Average Humidity 75    
Maximum Humidity 100    
Minimum Humidity 49    
Precipitation  
Precipitation 0.44 in 0.11 in 2.52 in (1967)
Month to date precipitation 0.44 0.11  
Year to date precipitation 56.79 41.82  
Sea Level Pressure  
Sea Level Pressure 29.80 in    
Wind  
Wind Speed 8 mph (West)    
Max Wind Speed 24 mph    
Max Gust Speed 32 mph    
Visibility 8 miles    
Events Rain    
T = Trace of Precipitation, MM = Missing Value Source: NWS Daily Summary

Daily Weather History Graph

Daily Weather History Graph

Search for Another Location

Airport or City:

Trip Planner

Search our weather history database for the weather conditions in past years. The results will help you decide how hot, cold, wet, or windy it might be!

Date:

Astronomy

Nov. 01, 2013 Rise Set
Actual Time 7:56 AM EDT 6:45 PM EDT
Civil Twilight 7:31 AM EDT 7:11 PM EDT
Nautical Twilight 7:01 AM EDT 7:40 PM EDT
Astronomical Twilight 6:32 AM EDT 8:09 PM EDT
Moon 5:53 AM EDT (11/1) 5:33 PM EDT (11/1)
Length of Visible Light 11h 39m
Length of Day
10h 48m
Waning Crescent, 4% of the Moon is Illuminated
Nov 1
Waning Crescent
Nov 3
New
Nov 10
First Quarter
Nov 17
Full
Nov 25
Last Quarter

Hourly Weather History & Observations

Time (EDT) Temp. Dew Point Humidity Pressure Visibility Wind Dir Wind Speed Gust Speed Precip Events Conditions
12:52 AM 70.0 °F 62.1 °F 76% 29.83 in 10.0 mi South 19.6 mph 33.4 mph 0.00 in Rain Light Rain
1:33 AM 69.8 °F 64.4 °F 83% 29.85 in 10.0 mi SSW 13.8 mph 24.2 mph 0.00 in Rain Light Rain
1:52 AM 69.1 °F 64.0 °F 84% 29.81 in 10.0 mi South 16.1 mph 26.5 mph 0.00 in Rain Light Rain
2:52 AM 68.0 °F 64.9 °F 90% 29.80 in 10.0 mi South 15.0 mph - 0.00 in   Overcast
3:52 AM 69.1 °F 64.9 °F 87% 29.78 in 10.0 mi SSW 15.0 mph 20.7 mph N/A   Overcast
4:52 AM 69.1 °F 64.9 °F 87% 29.76 in 10.0 mi SSW 11.5 mph - N/A   Overcast
5:23 AM 69.8 °F 64.4 °F 83% 29.79 in 10.0 mi SSW 16.1 mph 21.9 mph N/A   Overcast
5:52 AM 70.0 °F 64.9 °F 84% 29.78 in 10.0 mi WSW 12.7 mph 26.5 mph N/A   Overcast
5:59 AM 69.8 °F 64.4 °F 83% 29.80 in 2.0 mi SW 10.4 mph 26.5 mph 0.01 in Rain Heavy Rain
6:04 AM 69.8 °F 66.2 °F 88% 29.80 in 4.0 mi SW 10.4 mph 19.6 mph 0.03 in Rain Light Rain
6:17 AM 68.0 °F 64.4 °F 88% 29.83 in 2.0 mi WNW 19.6 mph 25.3 mph 0.07 in Rain Rain
6:27 AM 64.4 °F 62.6 °F 94% 29.83 in 3.0 mi West 11.5 mph 24.2 mph 0.17 in Rain Heavy Rain
6:36 AM 64.4 °F 62.6 °F 94% 29.82 in 3.0 mi WNW 9.2 mph - 0.21 in Rain Rain
6:49 AM 64.4 °F 62.6 °F 94% 29.82 in 2.5 mi WNW 9.2 mph - 0.25 in Rain Heavy Rain
6:52 AM 64.0 °F 62.1 °F 93% 29.81 in 2.5 mi WNW 8.1 mph - 0.27 in Rain Rain
7:01 AM 64.4 °F 62.6 °F 94% 29.83 in 2.0 mi West 6.9 mph - 0.04 in Rain Rain
7:19 AM 62.6 °F 62.6 °F 100% 29.84 in 3.0 mi West 6.9 mph - 0.09 in Rain Light Rain
7:52 AM 63.0 °F 62.1 °F 97% 29.83 in 3.0 mi WNW 5.8 mph - 0.12 in Rain Light Rain
8:19 AM 62.6 °F 60.8 °F 94% 29.85 in 3.0 mi NW 8.1 mph - 0.01 in Rain Light Rain
8:52 AM 63.0 °F 61.0 °F 93% 29.84 in 3.0 mi West 3.5 mph - 0.05 in Rain Light Rain
9:23 AM 62.6 °F 60.8 °F 94% 29.86 in 8.0 mi Calm Calm - 0.00 in Rain Light Rain
9:52 AM 63.0 °F 62.1 °F 97% 29.84 in 9.0 mi SW 3.5 mph - 0.00 in   Overcast
10:52 AM 64.9 °F 62.1 °F 90% 29.83 in 10.0 mi West 5.8 mph - N/A   Overcast
11:37 AM 64.4 °F 62.6 °F 94% 29.85 in 10.0 mi WSW 4.6 mph - N/A   Overcast
11:52 AM 64.9 °F 61.0 °F 87% 29.83 in 10.0 mi West 4.6 mph - N/A   Overcast
12:52 PM 68.0 °F 61.0 °F 78% 29.81 in 10.0 mi Variable 4.6 mph - N/A   Mostly Cloudy
1:52 PM 72.0 °F 59.0 °F 64% 29.76 in 10.0 mi WNW 4.6 mph - N/A   Scattered Clouds
2:52 PM 73.9 °F 57.9 °F 57% 29.74 in 10.0 mi West 9.2 mph - N/A   Scattered Clouds
3:52 PM 75.0 °F 55.0 °F 50% 29.72 in 10.0 mi West 10.4 mph 20.7 mph N/A   Scattered Clouds
4:52 PM 73.9 °F 55.0 °F 52% 29.72 in 10.0 mi WSW 10.4 mph - N/A   Partly Cloudy
5:52 PM 73.0 °F 54.0 °F 51% 29.72 in 10.0 mi West 6.9 mph - N/A   Partly Cloudy
6:52 PM 68.0 °F 48.0 °F 49% 29.75 in 10.0 mi West 6.9 mph - N/A   Partly Cloudy
7:52 PM 64.0 °F 48.9 °F 58% 29.77 in 10.0 mi WNW 8.1 mph - N/A   Partly Cloudy
8:52 PM 63.0 °F 50.0 °F 63% 29.79 in 10.0 mi WNW 5.8 mph - N/A   Clear
9:52 PM 60.1 °F 50.0 °F 69% 29.81 in 10.0 mi WNW 5.8 mph - N/A   Clear
10:52 PM 59.0 °F 50.0 °F 72% 29.83 in 10.0 mi NW 9.2 mph - N/A   Clear
11:52 PM 57.9 °F 48.0 °F 70% 29.83 in 10.0 mi WNW 9.2 mph - N/A   Clear